owner,sensor,date,latitude,longitude,vertical_datum,wind_speed,wind_to_direction,wind_speed_of_gust,qcFlag 
TCOON,ioos:station:TCOON:524:1,2011-10-04T12:00:00Z,29.8672,-93.9310,0.0,0.9,24.0,99.0,'11111222,11111222,11144222' 
TCOON,ioos:station:TCOON:524:1,2011-10-04T13:00:00Z,29.8672,-93.9310,0.0,0.4,24.0,99.0,'11111222,11111222,11144222' 
TCOON,ioos:station:TCOON:524:1,2011-10-04T14:00:00Z,29.8672,-93.9310,0.0,1.2,55.0,99.0,'11111222,11111222,11144222' 
TCOON,ioos:station:TCOON:524:1,2011-10-04T15:00:00Z,29.8672,-93.9310,0.0,2.4,62.0,99.0,'11111222,11111222,11144222' 
TCOON,ioos:station:TCOON:524:1,2011-10-04T16:00:00Z,29.8672,-93.9310,0.0,3.5,64.0,99.0,'11111222,11111222,11144222' 
TCOON,ioos:station:TCOON:524:1,2011-10-04T17:00:00Z,29.8672,-93.9310,0.0,2.9,73.0,99.0,'11111222,11111222,11144222' 
TCOON,ioos:station:TCOON:524:1,2011-10-04T18:00:00Z,29.8672,-93.9310,0.0,2.7,86.0,99.0,'11111222,11111222,11144222' 
TCOON,ioos:station:TCOON:524:1,2011-10-04T19:00:00Z,29.8672,-93.9310,0.0,2.1,62.0,99.0,'11111222,11111222,11144222' 
TCOON,ioos:station:TCOON:524:1,2011-10-04T20:00:00Z,29.8672,-93.9310,0.0,2.1,72.0,99.0,'11111222,11111222,11144222' 
TCOON,ioos:station:TCOON:524:1,2011-10-04T21:00:00Z,29.8672,-93.9310,0.0,1.6,125.0,99.0,'11111222,11111222,11144222' 
TCOON,ioos:station:TCOON:524:1,2011-10-04T22:00:00Z,29.8672,-93.9310,0.0,1.8,141.0,99.0,'11111222,11111222,11144222' 
TCOON,ioos:station:TCOON:524:1,2011-10-04T23:00:00Z,29.8672,-93.9310,0.0,2.0,170.0,99.0,'11111222,11111222,11144222' 
TCOON,ioos:station:TCOON:524:1,2011-10-05T00:00:00Z,29.8672,-93.9310,0.0,2.1,150.0,99.0,'11111222,11111222,11144222' 
TCOON,ioos:station:TCOON:524:1,2011-10-05T01:00:00Z,29.8672,-93.9310,0.0,1.6,156.0,99.0,'11111222,11111222,11144222' 
TCOON,ioos:station:TCOON:524:1,2011-10-05T02:00:00Z,29.8672,-93.9310,0.0,0.8,163.0,99.0,'11111222,11111222,11144222' 
TCOON,ioos:station:TCOON:524:1,2011-10-05T03:00:00Z,29.8672,-93.9310,0.0,1.1,135.0,99.0,'11111222,11111222,11144222' 
TCOON,ioos:station:TCOON:524:1,2011-10-05T04:00:00Z,29.8672,-93.9310,0.0,1.4,126.0,99.0,'11111222,11111222,11144222' 
TCOON,ioos:station:TCOON:524:1,2011-10-05T05:00:00Z,29.8672,-93.9310,0.0,1.9,111.0,99.0,'11111222,11111222,11144222' 
TCOON,ioos:station:TCOON:524:1,2011-10-05T06:00:00Z,29.8672,-93.9310,0.0,1.8,113.0,99.0,'11111222,11111222,11144222' 
TCOON,ioos:station:TCOON:524:1,2011-10-05T07:00:00Z,29.8672,-93.9310,0.0,2.1,99.0,99.0,'11111222,11111222,11144222' 
TCOON,ioos:station:TCOON:524:1,2011-10-05T08:00:00Z,29.8672,-93.9310,0.0,1.7,86.0,99.0,'11111222,11111222,11144222' 
TCOON,ioos:station:TCOON:524:1,2011-10-05T09:00:00Z,29.8672,-93.9310,0.0,3.1,97.0,99.0,'11111222,11111222,11144222' 
TCOON,ioos:station:TCOON:524:1,2011-10-05T10:00:00Z,29.8672,-93.9310,0.0,2.5,87.0,99.0,'11111222,11111222,11144222' 
TCOON,ioos:station:TCOON:524:1,2011-10-05T11:00:00Z,29.8672,-93.9310,0.0,2.7,68.0,99.0,'11111222,11111222,11144222' 
TCOON,ioos:station:TCOON:524:1,2011-10-05T12:00:00Z,29.8672,-93.9310,0.0,1.1,48.0,99.0,'11111222,11111222,11144222' 
TCOON,ioos:station:TCOON:524:1,2011-10-05T13:00:00Z,29.8672,-93.9310,0.0,1.3,45.0,99.0,'11111222,11111222,11144222' 
TCOON,ioos:station:TCOON:524:1,2011-10-05T14:00:00Z,29.8672,-93.9310,0.0,2.8,59.0,99.0,'11111222,11111222,11144222' 
TCOON,ioos:station:TCOON:524:1,2011-10-05T15:00:00Z,29.8672,-93.9310,0.0,2.4,77.0,99.0,'11111222,11111222,11144222' 
TCOON,ioos:station:TCOON:524:1,2011-10-05T16:00:00Z,29.8672,-93.9310,0.0,3.1,80.0,99.0,'11111222,11111222,11144222' 
TCOON,ioos:station:TCOON:524:1,2011-10-05T17:00:00Z,29.8672,-93.9310,0.0,3.5,67.0,99.0,'11111222,11111222,11144222' 
TCOON,ioos:station:TCOON:524:1,2011-10-05T18:00:00Z,29.8672,-93.9310,0.0,3.5,77.0,99.0,'11111222,11111222,11144222' 
TCOON,ioos:station:TCOON:524:1,2011-10-05T19:00:00Z,29.8672,-93.9310,0.0,4.0,67.0,99.0,'11111222,11111222,11144222' 
TCOON,ioos:station:TCOON:524:1,2011-10-05T20:00:00Z,29.8672,-93.9310,0.0,2.8,73.0,99.0,'11111222,11111222,11144222' 
TCOON,ioos:station:TCOON:524:1,2011-10-05T21:00:00Z,29.8672,-93.9310,0.0,2.8,73.0,99.0,'11111222,11111222,11144222' 
TCOON,ioos:station:TCOON:524:1,2011-10-05T22:00:00Z,29.8672,-93.9310,0.0,2.3,102.0,99.0,'11111222,11111222,11144222' 
TCOON,ioos:station:TCOON:524:1,2011-10-05T23:00:00Z,29.8672,-93.9310,0.0,1.8,126.0,99.0,'11111222,11111222,11144222' 
TCOON,ioos:station:TCOON:524:1,2011-10-06T00:00:00Z,29.8672,-93.9310,0.0,1.4,142.0,99.0,'11111222,11111222,11144222' 
TCOON,ioos:station:TCOON:524:1,2011-10-06T01:00:00Z,29.8672,-93.9310,0.0,2.4,136.0,99.0,'11111222,11111222,11144222' 
TCOON,ioos:station:TCOON:524:1,2011-10-06T02:00:00Z,29.8672,-93.9310,0.0,2.1,122.0,99.0,'11111222,11111222,11144222' 
TCOON,ioos:station:TCOON:524:1,2011-10-06T03:00:00Z,29.8672,-93.9310,0.0,2.2,140.0,99.0,'11111222,11111222,11144222' 
TCOON,ioos:station:TCOON:524:1,2011-10-06T04:00:00Z,29.8672,-93.9310,0.0,2.8,130.0,99.0,'11111222,11111222,11144222' 
TCOON,ioos:station:TCOON:524:1,2011-10-06T05:00:00Z,29.8672,-93.9310,0.0,2.9,128.0,99.0,'11111222,11111222,11144222' 
TCOON,ioos:station:TCOON:524:1,2011-10-06T06:00:00Z,29.8672,-93.9310,0.0,2.5,117.0,99.0,'11111222,11111222,11144222' 
TCOON,ioos:station:TCOON:524:1,2011-10-06T07:00:00Z,29.8672,-93.9310,0.0,3.8,101.0,99.0,'11111222,11111222,11144222' 
TCOON,ioos:station:TCOON:524:1,2011-10-06T08:00:00Z,29.8672,-93.9310,0.0,3.3,82.0,99.0,'11111222,11111222,11144222' 
TCOON,ioos:station:TCOON:524:1,2011-10-06T09:00:00Z,29.8672,-93.9310,0.0,3.9,82.0,99.0,'11111222,11111222,11144222' 
TCOON,ioos:station:TCOON:524:1,2011-10-06T10:00:00Z,29.8672,-93.9310,0.0,3.3,79.0,99.0,'11111222,11111222,11144222' 
TCOON,ioos:station:TCOON:524:1,2011-10-06T11:00:00Z,29.8672,-93.9310,0.0,4.1,81.0,99.0,'11111222,11111222,11144222' 
TCOON,ioos:station:TCOON:524:1,2011-10-06T12:00:00Z,29.8672,-93.9310,0.0,3.5,88.0,99.0,'11111222,11111222,11144222' 
TCOON,ioos:station:TCOON:524:1,2011-10-06T13:00:00Z,29.8672,-93.9310,0.0,2.8,74.0,99.0,'11111222,11111222,11144222' 
TCOON,ioos:station:TCOON:524:1,2011-10-06T14:00:00Z,29.8672,-93.9310,0.0,2.6,69.0,99.0,'11111222,11111222,11144222' 
TCOON,ioos:station:TCOON:524:1,2011-10-06T15:00:00Z,29.8672,-93.9310,0.0,3.6,80.0,99.0,'11111222,11111222,11144222' 
TCOON,ioos:station:TCOON:524:1,2011-10-06T16:00:00Z,29.8672,-93.9310,0.0,3.3,87.0,99.0,'11111222,11111222,11144222' 
TCOON,ioos:station:TCOON:524:1,2011-10-06T17:00:00Z,29.8672,-93.9310,0.0,4.5,102.0,99.0,'11111222,11111222,11144222' 
TCOON,ioos:station:TCOON:524:1,2011-10-06T18:00:00Z,29.8672,-93.9310,0.0,4.9,103.0,99.0,'11111222,11111222,11144222' 
TCOON,ioos:station:TCOON:524:1,2011-10-06T19:00:00Z,29.8672,-93.9310,0.0,4.4,110.0,99.0,'11111222,11111222,11144222' 
TCOON,ioos:station:TCOON:524:1,2011-10-06T20:00:00Z,29.8672,-93.9310,0.0,4.5,112.0,99.0,'11111222,11111222,11144222' 
TCOON,ioos:station:TCOON:524:1,2011-10-06T21:00:00Z,29.8672,-93.9310,0.0,3.9,119.0,99.0,'11111222,11111222,11144222' 
TCOON,ioos:station:TCOON:524:1,2011-10-06T22:00:00Z,29.8672,-93.9310,0.0,3.8,123.0,99.0,'11111222,11111222,11144222' 
TCOON,ioos:station:TCOON:524:1,2011-10-06T23:00:00Z,29.8672,-93.9310,0.0,4.4,124.0,99.0,'11111222,11111222,11144222' 
TCOON,ioos:station:TCOON:524:1,2011-10-07T00:00:00Z,29.8672,-93.9310,0.0,4.2,126.0,99.0,'11111222,11111222,11144222' 
TCOON,ioos:station:TCOON:524:1,2011-10-07T01:00:00Z,29.8672,-93.9310,0.0,3.7,126.0,99.0,'11111222,11111222,11144222' 
TCOON,ioos:station:TCOON:524:1,2011-10-07T02:00:00Z,29.8672,-93.9310,0.0,3.3,121.0,99.0,'11111222,11111222,11144222' 
TCOON,ioos:station:TCOON:524:1,2011-10-07T03:00:00Z,29.8672,-93.9310,0.0,3.3,123.0,99.0,'11111222,11111222,11144222' 
TCOON,ioos:station:TCOON:524:1,2011-10-07T04:00:00Z,29.8672,-93.9310,0.0,2.9,123.0,99.0,'11111222,11111222,11144222' 
TCOON,ioos:station:TCOON:524:1,2011-10-07T05:00:00Z,29.8672,-93.9310,0.0,4.1,116.0,99.0,'11111222,11111222,11144222' 
TCOON,ioos:station:TCOON:524:1,2011-10-07T06:00:00Z,29.8672,-93.9310,0.0,3.9,117.0,99.0,'11111222,11111222,11144222' 
TCOON,ioos:station:TCOON:524:1,2011-10-07T07:00:00Z,29.8672,-93.9310,0.0,3.7,109.0,99.0,'11111222,11111222,11144222' 
TCOON,ioos:station:TCOON:524:1,2011-10-07T08:00:00Z,29.8672,-93.9310,0.0,3.2,100.0,99.0,'11111222,11111222,11144222' 
TCOON,ioos:station:TCOON:524:1,2011-10-07T09:00:00Z,29.8672,-93.9310,0.0,3.4,92.0,99.0,'11111222,11111222,11144222' 
TCOON,ioos:station:TCOON:524:1,2011-10-07T10:00:00Z,29.8672,-93.9310,0.0,3.8,92.0,99.0,'11111222,11111222,11144222' 
TCOON,ioos:station:TCOON:524:1,2011-10-07T11:00:00Z,29.8672,-93.9310,0.0,3.8,94.0,99.0,'11111222,11111222,11144222' 
TCOON,ioos:station:TCOON:524:1,2011-10-07T12:00:00Z,29.8672,-93.9310,0.0,4.8,93.0,99.0,'11111222,11111222,11144222' 
TCOON,ioos:station:TCOON:524:1,2011-10-07T13:00:00Z,29.8672,-93.9310,0.0,4.1,86.0,99.0,'11111222,11111222,11144222' 
TCOON,ioos:station:TCOON:524:1,2011-10-07T14:00:00Z,29.8672,-93.9310,0.0,4.4,90.0,99.0,'11111222,11111222,11144222' 
TCOON,ioos:station:TCOON:524:1,2011-10-07T15:00:00Z,29.8672,-93.9310,0.0,3.4,90.0,99.0,'11111222,11111222,11144222' 
TCOON,ioos:station:TCOON:524:1,2011-10-07T16:00:00Z,29.8672,-93.9310,0.0,4.3,102.0,99.0,'11111222,11111222,11144222' 
TCOON,ioos:station:TCOON:524:1,2011-10-07T17:00:00Z,29.8672,-93.9310,0.0,4.6,107.0,99.0,'11111222,11111222,11144222' 
TCOON,ioos:station:TCOON:524:1,2011-10-07T18:00:00Z,29.8672,-93.9310,0.0,4.9,106.0,99.0,'11111222,11111222,11144222' 
TCOON,ioos:station:TCOON:524:1,2011-10-07T19:00:00Z,29.8672,-93.9310,0.0,5.1,110.0,,'1111122,1111122,1111122' 
TCOON,ioos:station:TCOON:524:1,2011-10-07T20:00:00Z,29.8672,-93.9310,0.0,5.1,120.0,,'1111122,1111122,1111122' 
TCOON,ioos:station:TCOON:524:1,2011-10-07T21:00:00Z,29.8672,-93.9310,0.0,4.1,120.0,,'1111122,1111122,1111122' 
TCOON,ioos:station:TCOON:524:1,2011-10-07T22:00:00Z,29.8672,-93.9310,0.0,5.1,120.0,,'1111122,1111122,1111122' 
TCOON,ioos:station:TCOON:524:1,2011-10-07T23:00:00Z,29.8672,-93.9310,0.0,4.1,120.0,,'1111122,1111122,1111122' 
TCOON,ioos:station:TCOON:524:1,2011-10-08T00:00:00Z,29.8672,-93.9310,0.0,3.1,130.0,,'1111122,1111122,1111122' 
TCOON,ioos:station:TCOON:524:1,2011-10-08T01:00:00Z,29.8672,-93.9310,0.0,3.1,120.0,,'1111122,1111122,1111122' 
TCOON,ioos:station:TCOON:524:1,2011-10-08T02:00:00Z,29.8672,-93.9310,0.0,3.1,120.0,,'1111122,1111122,1111122' 
TCOON,ioos:station:TCOON:524:1,2011-10-08T03:00:00Z,29.8672,-93.9310,0.0,3.1,130.0,,'1111122,1111122,1111122' 
TCOON,ioos:station:TCOON:524:1,2011-10-08T04:00:00Z,29.8672,-93.9310,0.0,4.1,110.0,,'1111122,1111122,1111122' 
TCOON,ioos:station:TCOON:524:1,2011-10-08T05:00:00Z,29.8672,-93.9310,0.0,5.7,100.0,,'1111122,1111122,1111122' 
TCOON,ioos:station:TCOON:524:1,2011-10-08T06:00:00Z,29.8672,-93.9310,0.0,5.1,100.0,,'1111122,1111122,1111122' 
TCOON,ioos:station:TCOON:524:1,2011-10-08T07:00:00Z,29.8672,-93.9310,0.0,5.1,90.0,,'1111122,1111122,1111122' 
TCOON,ioos:station:TCOON:524:1,2011-10-08T08:00:00Z,29.8672,-93.9310,0.0,5.1,90.0,,'1111122,1111122,1111122' 
TCOON,ioos:station:TCOON:524:1,2011-10-08T09:00:00Z,29.8672,-93.9310,0.0,3.6,100.0,,'1111122,1111122,1111122' 
TCOON,ioos:station:TCOON:524:1,2011-10-08T10:00:00Z,29.8672,-93.9310,0.0,4.1,90.0,,'1111122,1111122,1111122' 
TCOON,ioos:station:TCOON:524:1,2011-10-08T11:00:00Z,29.8672,-93.9310,0.0,4.6,90.0,,'1111122,1111122,1111122' 
TCOON,ioos:station:TCOON:524:1,2011-10-08T12:00:00Z,29.8672,-93.9310,0.0,5.1,90.0,,'1111122,1111122,1111122' 
TCOON,ioos:station:TCOON:524:1,2011-10-08T13:00:00Z,29.8672,-93.9310,0.0,5.7,90.0,,'1111122,1111122,1111122' 
TCOON,ioos:station:TCOON:524:1,2011-10-08T14:00:00Z,29.8672,-93.9310,0.0,5.7,90.0,,'1111122,1111122,1111122' 
TCOON,ioos:station:TCOON:524:1,2011-10-08T15:00:00Z,29.8672,-93.9310,0.0,4.6,100.0,,'1111122,1111122,1111122' 
TCOON,ioos:station:TCOON:524:1,2011-10-08T16:00:00Z,29.8672,-93.9310,0.0,6.2,100.0,,'1111122,1111122,1111122' 
TCOON,ioos:station:TCOON:524:1,2011-10-08T17:00:00Z,29.8672,-93.9310,0.0,7.7,100.0,,'1111122,1111122,1111122' 
TCOON,ioos:station:TCOON:524:1,2011-10-08T18:00:00Z,29.8672,-93.9310,0.0,4.6,120.0,,'1111122,1111122,1111122' 
TCOON,ioos:station:TCOON:524:1,2011-10-08T19:00:00Z,29.8672,-93.9310,0.0,5.7,110.0,,'1111122,1111122,1111122' 
TCOON,ioos:station:TCOON:524:1,2011-10-08T20:00:00Z,29.8672,-93.9310,0.0,5.1,120.0,,'1111122,1111122,1111122' 
TCOON,ioos:station:TCOON:524:1,2011-10-08T21:00:00Z,29.8672,-93.9310,0.0,5.1,120.0,,'1111122,1111122,1111122' 
TCOON,ioos:station:TCOON:524:1,2011-10-08T22:00:00Z,29.8672,-93.9310,0.0,5.1,120.0,,'1111122,1111122,1111122' 
TCOON,ioos:station:TCOON:524:1,2011-10-08T23:00:00Z,29.8672,-93.9310,0.0,5.7,120.0,,'1111122,1111122,1111122' 
TCOON,ioos:station:TCOON:524:1,2011-10-09T00:00:00Z,29.8672,-93.9310,0.0,5.7,120.0,,'1111122,1111122,1111122' 
TCOON,ioos:station:TCOON:524:1,2011-10-09T01:00:00Z,29.8672,-93.9310,0.0,4.1,120.0,,'1111122,1111122,1111122' 
TCOON,ioos:station:TCOON:524:1,2011-10-09T02:00:00Z,29.8672,-93.9310,0.0,4.6,120.0,,'1111122,1111122,1111122' 
TCOON,ioos:station:TCOON:524:1,2011-10-09T03:00:00Z,29.8672,-93.9310,0.0,7.7,100.0,,'1111122,1111122,1111122' 
TCOON,ioos:station:TCOON:524:1,2011-10-09T04:00:00Z,29.8672,-93.9310,0.0,7.2,100.0,,'1111122,1111122,1111122' 
TCOON,ioos:station:TCOON:524:1,2011-10-09T05:00:00Z,29.8672,-93.9310,0.0,6.2,100.0,,'1111122,1111122,1111122' 
TCOON,ioos:station:TCOON:524:1,2011-10-09T06:00:00Z,29.8672,-93.9310,0.0,5.7,90.0,,'1111122,1111122,1111122' 
TCOON,ioos:station:TCOON:524:1,2011-10-09T07:00:00Z,29.8672,-93.9310,0.0,5.1,90.0,,'1111122,1111122,1111122' 
TCOON,ioos:station:TCOON:524:1,2011-10-09T08:00:00Z,29.8672,-93.9310,0.0,4.6,90.0,,'1111122,1111122,1111122' 
TCOON,ioos:station:TCOON:524:1,2011-10-09T09:00:00Z,29.8672,-93.9310,0.0,5.1,80.0,,'1111122,1111122,1111122' 
TCOON,ioos:station:TCOON:524:1,2011-10-09T10:00:00Z,29.8672,-93.9310,0.0,5.7,70.0,,'1111122,1111122,1111122' 
TCOON,ioos:station:TCOON:524:1,2011-10-09T11:00:00Z,29.8672,-93.9310,0.0,5.1,80.0,,'1111122,1111122,1111122' 
TCOON,ioos:station:TCOON:524:1,2011-10-09T12:00:00Z,29.8672,-93.9310,0.0,5.1,80.0,,'1111122,1111122,1111122' 
TCOON,ioos:station:TCOON:524:1,2011-10-09T13:00:00Z,29.8672,-93.9310,0.0,6.7,80.0,,'1111122,1111122,1111122' 
TCOON,ioos:station:TCOON:524:1,2011-10-09T14:00:00Z,29.8672,-93.9310,0.0,6.2,100.0,,'1111122,1111122,1111122' 
TCOON,ioos:station:TCOON:524:1,2011-10-09T15:00:00Z,29.8672,-93.9310,0.0,6.7,100.0,,'1111122,1111122,1111122' 
TCOON,ioos:station:TCOON:524:1,2011-10-09T16:00:00Z,29.8672,-93.9310,0.0,6.2,100.0,,'1111122,1111122,1111122' 
TCOON,ioos:station:TCOON:524:1,2011-10-09T17:00:00Z,29.8672,-93.9310,0.0,7.2,100.0,,'1111122,1111122,1111122' 
TCOON,ioos:station:TCOON:524:1,2011-10-09T18:00:00Z,29.8672,-93.9310,0.0,4.6,110.0,,'1111122,1111122,1111122' 
TCOON,ioos:station:TCOON:524:1,2011-10-09T19:00:00Z,29.8672,-93.9310,0.0,5.7,108.0,99.0,'11111222,11111222,11144222' 
TCOON,ioos:station:TCOON:524:1,2011-10-09T20:00:00Z,29.8672,-93.9310,0.0,4.1,120.0,,'1111122,1111122,1111122' 
TCOON,ioos:station:TCOON:524:1,2011-10-09T21:00:00Z,29.8672,-93.9310,0.0,4.1,120.0,,'1111122,1111122,1111122' 
TCOON,ioos:station:TCOON:524:1,2011-10-09T22:00:00Z,29.8672,-93.9310,0.0,4.1,130.0,,'1111122,1111122,1111122' 
TCOON,ioos:station:TCOON:524:1,2011-10-09T23:00:00Z,29.8672,-93.9310,0.0,4.6,140.0,,'1111122,1111122,1111122' 
TCOON,ioos:station:TCOON:524:1,2011-10-10T00:00:00Z,29.8672,-93.9310,0.0,2.6,120.0,,'1111122,1111122,1111122' 
TCOON,ioos:station:TCOON:524:1,2011-10-10T01:00:00Z,29.8672,-93.9310,0.0,2.6,130.0,,'1111122,1111122,1111122' 
TCOON,ioos:station:TCOON:524:1,2011-10-10T02:00:00Z,29.8672,-93.9310,0.0,3.1,350.0,,'1111122,1111122,1111122' 
TCOON,ioos:station:TCOON:524:1,2011-10-10T03:00:00Z,29.8672,-93.9310,0.0,4.1,10.0,,'1111122,1111122,1111122' 
TCOON,ioos:station:TCOON:524:1,2011-10-10T04:00:00Z,29.8672,-93.9310,0.0,2.6,10.0,,'1111122,1111122,1111122' 
TCOON,ioos:station:TCOON:524:1,2011-10-10T05:00:00Z,29.8672,-93.9310,0.0,1.0,30.0,,'1111122,1111122,1111122' 
TCOON,ioos:station:TCOON:524:1,2011-10-10T06:00:00Z,29.8672,-93.9310,0.0,1.5,50.0,,'1111122,1111122,1111122' 
TCOON,ioos:station:TCOON:524:1,2011-10-10T07:00:00Z,29.8672,-93.9310,0.0,3.1,70.0,,'1111122,1111122,1111122' 
TCOON,ioos:station:TCOON:524:1,2011-10-10T08:00:00Z,29.8672,-93.9310,0.0,1.5,70.0,,'1111122,1111122,1111122' 
TCOON,ioos:station:TCOON:524:1,2011-10-10T09:00:00Z,29.8672,-93.9310,0.0,3.1,70.0,,'1111122,1111122,1111122' 
TCOON,ioos:station:TCOON:524:1,2011-10-10T10:00:00Z,29.8672,-93.9310,0.0,2.1,60.0,,'1111122,1111122,1111122' 
TCOON,ioos:station:TCOON:524:1,2011-10-10T11:00:00Z,29.8672,-93.9310,0.0,2.1,50.0,,'1111122,1111122,1111122' 
TCOON,ioos:station:TCOON:524:1,2011-10-10T12:00:00Z,29.8672,-93.9310,0.0,4.1,70.0,,'1111122,1111122,1111122' 
TCOON,ioos:station:TCOON:524:1,2011-10-10T13:00:00Z,29.8672,-93.9310,0.0,1.5,40.0,,'1111122,1111122,1111122' 
TCOON,ioos:station:TCOON:524:1,2011-10-10T14:00:00Z,29.8672,-93.9310,0.0,3.1,70.0,,'1111122,1111122,1111122' 
TCOON,ioos:station:TCOON:524:1,2011-10-10T15:00:00Z,29.8672,-93.9310,0.0,3.1,60.0,,'1111122,1111122,1111122' 
TCOON,ioos:station:TCOON:524:1,2011-10-10T16:00:00Z,29.8672,-93.9310,0.0,2.1,50.0,,'1111122,1111122,1111122' 
TCOON,ioos:station:TCOON:524:1,2011-10-10T17:00:00Z,29.8672,-93.9310,0.0,3.1,80.0,,'1111122,1111122,1111122' 
TCOON,ioos:station:TCOON:524:1,2011-10-10T18:00:00Z,29.8672,-93.9310,0.0,3.1,100.0,,'1111122,1111122,1111122' 
TCOON,ioos:station:TCOON:524:1,2011-10-10T19:00:00Z,29.8672,-93.9310,0.0,2.6,100.0,,'1111122,1111122,1111122' 
TCOON,ioos:station:TCOON:524:1,2011-10-10T20:00:00Z,29.8672,-93.9310,0.0,2.6,100.0,,'1111122,1111122,1111122' 
TCOON,ioos:station:TCOON:524:1,2011-10-10T21:00:00Z,29.8672,-93.9310,0.0,2.6,100.0,,'1111122,1111122,1111122' 
TCOON,ioos:station:TCOON:524:1,2011-10-10T22:00:00Z,29.8672,-93.9310,0.0,1.5,110.0,,'1111122,1111122,1111122' 
TCOON,ioos:station:TCOON:524:1,2011-10-10T23:00:00Z,29.8672,-93.9310,0.0,1.0,110.0,,'1111122,1111122,1111122' 
TCOON,ioos:station:TCOON:524:1,2011-10-11T00:00:00Z,29.8672,-93.9310,0.0,2.1,180.0,,'1111122,1111122,1111122' 
TCOON,ioos:station:TCOON:524:1,2011-10-11T01:00:00Z,29.8672,-93.9310,0.0,1.0,170.0,,'1111122,1111122,1111122' 
TCOON,ioos:station:TCOON:524:1,2011-10-11T02:00:00Z,29.8672,-93.9310,0.0,1.0,140.0,,'1111122,1111122,1111122' 
TCOON,ioos:station:TCOON:524:1,2011-10-11T03:00:00Z,29.8672,-93.9310,0.0,1.5,120.0,,'1111122,1111122,1111122' 
TCOON,ioos:station:TCOON:524:1,2011-10-11T04:00:00Z,29.8672,-93.9310,0.0,1.5,130.0,,'1111122,1111122,1111122' 
TCOON,ioos:station:TCOON:524:1,2011-10-11T05:00:00Z,29.8672,-93.9310,0.0,0.0,158.0,99.0,'11111222,11111222,11144222' 
TCOON,ioos:station:TCOON:524:1,2011-10-11T06:00:00Z,29.8672,-93.9310,0.0,0.2,306.0,99.0,'11111222,11111222,11144222' 
TCOON,ioos:station:TCOON:524:1,2011-10-11T07:00:00Z,29.8672,-93.9310,0.0,1.5,300.0,,'1111122,1111122,1111122' 
TCOON,ioos:station:TCOON:524:1,2011-10-11T08:00:00Z,29.8672,-93.9310,0.0,3.1,330.0,,'1111122,1111122,1111122' 
TCOON,ioos:station:TCOON:524:1,2011-10-11T09:00:00Z,29.8672,-93.9310,0.0,2.6,350.0,,'1111122,1111122,1111122' 
TCOON,ioos:station:TCOON:524:1,2011-10-11T10:00:00Z,29.8672,-93.9310,0.0,2.6,340.0,,'1111122,1111122,1111122' 
TCOON,ioos:station:TCOON:524:1,2011-10-11T11:00:00Z,29.8672,-93.9310,0.0,1.5,10.0,,'1111122,1111122,1111122' 
TCOON,ioos:station:TCOON:524:1,2011-10-11T12:00:00Z,29.8672,-93.9310,0.0,1.5,20.0,,'1111122,1111122,1111122' 
TCOON,ioos:station:TCOON:524:1,2011-10-11T13:00:00Z,29.8672,-93.9310,0.0,3.1,10.0,,'1111122,1111122,1111122' 
TCOON,ioos:station:TCOON:524:1,2011-10-11T14:00:00Z,29.8672,-93.9310,0.0,1.0,30.0,,'1111122,1111122,1111122' 
TCOON,ioos:station:TCOON:524:1,2011-10-11T15:00:00Z,29.8672,-93.9310,0.0,1.5,50.0,,'1111122,1111122,1111122' 
TCOON,ioos:station:TCOON:524:1,2011-10-11T16:00:00Z,29.8672,-93.9310,0.0,2.1,90.0,,'1111122,1111122,1111122' 
TCOON,ioos:station:TCOON:524:1,2011-10-11T17:00:00Z,29.8672,-93.9310,0.0,2.6,100.0,,'1111122,1111122,1111122' 
TCOON,ioos:station:TCOON:524:1,2011-10-11T18:00:00Z,29.8672,-93.9310,0.0,2.6,140.0,,'1111122,1111122,1111122' 
TCOON,ioos:station:TCOON:524:1,2011-10-11T19:00:00Z,29.8672,-93.9310,0.0,2.6,110.0,,'1111122,1111122,1111122' 
TCOON,ioos:station:TCOON:524:1,2011-10-11T20:00:00Z,29.8672,-93.9310,0.0,2.6,110.0,,'1111122,1111122,1111122' 
TCOON,ioos:station:TCOON:524:1,2011-10-11T21:00:00Z,29.8672,-93.9310,0.0,2.1,120.0,,'1111122,1111122,1111122' 
TCOON,ioos:station:TCOON:524:1,2011-10-11T22:00:00Z,29.8672,-93.9310,0.0,2.1,120.0,,'1111122,1111122,1111122' 
TCOON,ioos:station:TCOON:524:1,2011-10-11T23:00:00Z,29.8672,-93.9310,0.0,4.1,200.0,,'1111122,1111122,1111122' 
TCOON,ioos:station:TCOON:524:1,2011-10-12T00:00:00Z,29.8672,-93.9310,0.0,3.6,200.0,,'1111122,1111122,1111122' 
TCOON,ioos:station:TCOON:524:1,2011-10-12T01:00:00Z,29.8672,-93.9310,0.0,3.1,200.0,,'1111122,1111122,1111122' 
TCOON,ioos:station:TCOON:524:1,2011-10-12T02:00:00Z,29.8672,-93.9310,0.0,2.6,200.0,,'1111122,1111122,1111122' 
TCOON,ioos:station:TCOON:524:1,2011-10-12T03:00:00Z,29.8672,-93.9310,0.0,3.6,220.0,,'1111122,1111122,1111122' 
TCOON,ioos:station:TCOON:524:1,2011-10-12T04:00:00Z,29.8672,-93.9310,0.0,2.6,200.0,,'1111122,1111122,1111122' 
TCOON,ioos:station:TCOON:524:1,2011-10-12T05:00:00Z,29.8672,-93.9310,0.0,1.5,170.0,,'1111122,1111122,1111122' 
TCOON,ioos:station:TCOON:524:1,2011-10-12T06:00:00Z,29.8672,-93.9310,0.0,1.5,210.0,,'1111122,1111122,1111122' 
TCOON,ioos:station:TCOON:524:1,2011-10-12T07:00:00Z,29.8672,-93.9310,0.0,1.5,210.0,,'1111122,1111122,1111122' 
TCOON,ioos:station:TCOON:524:1,2011-10-12T08:00:00Z,29.8672,-93.9310,0.0,1.5,220.0,,'1111122,1111122,1111122' 
TCOON,ioos:station:TCOON:524:1,2011-10-12T09:00:00Z,29.8672,-93.9310,0.0,1.5,230.0,,'1111122,1111122,1111122' 
TCOON,ioos:station:TCOON:524:1,2011-10-12T10:00:00Z,29.8672,-93.9310,0.0,1.0,220.0,,'1111122,1111122,1111122' 
TCOON,ioos:station:TCOON:524:1,2011-10-12T11:00:00Z,29.8672,-93.9310,0.0,0.5,240.0,,'1111122,1111122,1111122' 
TCOON,ioos:station:TCOON:524:1,2011-10-12T12:00:00Z,29.8672,-93.9310,0.0,0.0,98.0,99.0,'11111222,11111222,11144222' 
TCOON,ioos:station:TCOON:524:1,2011-10-12T13:00:00Z,29.8672,-93.9310,0.0,0.3,161.0,99.0,'11111222,11111222,11144222' 
TCOON,ioos:station:TCOON:524:1,2011-10-12T14:00:00Z,29.8672,-93.9310,0.0,1.5,170.0,,'1111122,1111122,1111122' 
TCOON,ioos:station:TCOON:524:1,2011-10-12T15:00:00Z,29.8672,-93.9310,0.0,2.1,150.0,,'1111122,1111122,1111122' 
TCOON,ioos:station:TCOON:524:1,2011-10-13T14:00:00Z,29.8672,-93.9310,0.0,4.1,320.0,,'1111122,1111122,1111122' 
TCOON,ioos:station:TCOON:524:1,2011-10-13T15:00:00Z,29.8672,-93.9310,0.0,6.7,360.0,,'1111122,1111122,1111122' 
TCOON,ioos:station:TCOON:524:1,2011-10-13T16:00:00Z,29.8672,-93.9310,0.0,6.2,350.0,,'1111122,1111122,1111122' 
TCOON,ioos:station:TCOON:524:1,2011-10-13T17:00:00Z,29.8672,-93.9310,0.0,6.2,350.0,,'1111122,1111122,1111122' 
TCOON,ioos:station:TCOON:524:1,2011-10-13T18:00:00Z,29.8672,-93.9310,0.0,6.7,10.0,,'1111122,1111122,1111122' 
TCOON,ioos:station:TCOON:524:1,2011-10-13T19:00:00Z,29.8672,-93.9310,0.0,6.2,350.0,,'1111122,1111122,1111122' 
TCOON,ioos:station:TCOON:524:1,2011-10-13T20:00:00Z,29.8672,-93.9310,0.0,5.1,340.0,,'1111122,1111122,1111122' 
TCOON,ioos:station:TCOON:524:1,2011-10-13T21:00:00Z,29.8672,-93.9310,0.0,4.6,360.0,,'1111122,1111122,1111122' 
TCOON,ioos:station:TCOON:524:1,2011-10-13T22:00:00Z,29.8672,-93.9310,0.0,4.6,360.0,,'1111122,1111122,1111122' 
TCOON,ioos:station:TCOON:524:1,2011-10-13T23:00:00Z,29.8672,-93.9310,0.0,3.6,320.0,,'1111122,1111122,1111122' 
TCOON,ioos:station:TCOON:524:1,2011-10-14T00:00:00Z,29.8672,-93.9310,0.0,2.1,360.0,,'1111122,1111122,1111122' 
TCOON,ioos:station:TCOON:524:1,2011-10-14T01:00:00Z,29.8672,-93.9310,0.0,2.1,350.0,,'1111122,1111122,1111122' 
TCOON,ioos:station:TCOON:524:1,2011-10-14T02:00:00Z,29.8672,-93.9310,0.0,2.1,360.0,,'1111122,1111122,1111122' 
TCOON,ioos:station:TCOON:524:1,2011-10-14T03:00:00Z,29.8672,-93.9310,0.0,1.5,360.0,,'1111122,1111122,1111122' 